Regional Weather Roundup
Issued by NWS Upton, NY

Home | Current Version | Previous Version | Text Only | Print | Product List | Glossary On
Versions: 1 2 3 4 5 6 7 8 9 10 11 12 13 14 15 16 17 18 19 20 21 22 23 24 25 26 27
000
ASUS41 KOKX 270604
RWROKX

REGIONAL WEATHER ROUNDUP
NATIONAL WEATHER SERVICE NEW YORK NY
200 AM EDT FRI MAY 27 2016

NOTE: "FAIR" INDICATES FEW OR NO CLOUDS BELOW 12,000 FEET WITH NO
SIGNIFICANT WEATHER AND/OR OBSTRUCTIONS TO VISIBILITY.

NYZ071-072-176-178-NJZ106-104-270700-
NEW YORK CITY METRO AREA


CITY           SKY/WX    TMP DP  RH WIND       PRES   REMARKS
CENTRAL PARK   PTCLDY    75  54  47 W5        30.08R
LAGUARDIA APRT MOCLDY    71  64  78 CALM      30.05R
KENNEDY INTL   MOCLDY    65  61  87 CALM      30.07R
NEWARK/LIBERTY MOCLDY    73  55  53 S5        30.05R
BRNX BOT. GARD   N/A     66  57  72 CALM      30.08R
TETERBORO      PTCLDY    72  53  51 CALM      30.05R
$$

NYZ177-179-078>081-270700-
LONG ISLAND NEW YORK

CITY           SKY/WX    TMP DP  RH WIND       PRES   REMARKS
FARMINGDALE    PTCLDY    64  60  87 S5        30.07R
ISLIP          PTCLDY    64  59  83 S6        30.06F
SHIRLEY        PTCLDY    63  59  87 S5        30.08S
RIVERHEAD        N/A     63  59  88 CALM      30.07S
WESTHAMPTON    CLOUDY    57  55  93 S3        30.09S FOG
EAST HAMPTON   FAIR      57  56  94 CALM      30.09R
MONTAUK POINT    N/A     60  58  92 S5        30.10S
$$

NYZ052-065-067-270700-
HUDSON VALLEY

CITY           SKY/WX    TMP DP  RH WIND       PRES   REMARKS
WHITE PLAINS   CLOUDY    64  57  78 NW3       30.06S
NEWBURGH       NOT AVBL
MONTGOMERY     CLOUDY    66  59  78 SE3       30.05S
POUGHKEEPSIE   CLOUDY    67  56  67 CALM      30.04S
ALBANY         CLOUDY    74  52  46 S10       30.02S
$$

NJZ001-105-106-008-010-013-015-019>022-104-270700-
NEW JERSEY

CITY           SKY/WX    TMP DP  RH WIND       PRES   REMARKS
NEWARK/LIBERTY MOCLDY    73  55  53 S5        30.05R
TETERBORO      PTCLDY    72  53  51 CALM      30.05R
CALDWELL       CLOUDY    69  57  65 CALM      30.06S
MORRISTOWN     CLOUDY    63  55  77 CALM      30.06R
SOMERVILLE     PTCLDY    65  60  84 CALM      30.04R
SUSSEX         CLOUDY    66  59  78 CALM      30.06S
ANDOVER          N/A     67  60  78 CALM      30.07S
TRENTON        CLOUDY    70  59  68 S5        30.05S
MILLVILLE      CLEAR     70  61  73 CALM      30.07R
ATLANTIC CITY  CLEAR     69  61  75 S8        30.07R
WRIGHTSTOWN    CLOUDY    69  62  80 SW5       30.04S
TOMS RIVER     CLEAR     64  57  77 CALM      30.07S
BELMAR         CLEAR     70  61  73 SW7       30.07S
$$

PAZ047>061-062-071-270700-
EASTERN PENNSYLVANIA

CITY           SKY/WX    TMP DP  RH WIND       PRES   REMARKS
PHILADELPHIA   MOCLDY    73  61  65 SW3       30.06S
ALLENTOWN      LGT RAIN  72  64  76 SW13G18   30.06R
SCRANTON       CLOUDY    74  60  61 SW3       30.05S
$$

CTZ002-004>006-009-010-012-RIZ004-006-007-MAZ004-011-015-270700-
SOUTHERN NEW ENGLAND
 IN CT

CITY           SKY/WX    TMP DP  RH WIND       PRES   REMARKS
BRADLEY INTL   CLOUDY    69  53  56 S6        30.05S
HARTFORD       CLOUDY    70  54  56 S3        30.06S
DANBURY        CLEAR     64  54  69 CALM      30.08S
WTRBRY/OXFORD    N/A     63  50  63 SE5       30.09S
BRIDGEPORT     CLEAR     66  57  72 NE5       30.06S
MERIDEN        CLEAR     61  55  81 CALM      30.07S
NEW HAVEN      CLEAR     61  55  81 CALM      30.07S
CHESTER        FAIR      61  55  82 CALM      30.09R
GROTON         CLEAR     57  57 100 CALM      30.08S
WILLIMANTIC    CLEAR     61  56  83 NE3       30.09R

 IN RI

CITY           SKY/WX    TMP DP  RH WIND       PRES   REMARKS
PROVIDENCE     CLEAR     61  55  81 CALM      30.09S
BLOCK ISLAND   CLEAR     59  56  89 SW9       30.10S
WESTERLY       CLEAR     57  52  83 CALM      30.10S

 IN MA

CITY           SKY/WX    TMP DP  RH WIND       PRES   REMARKS
BOSTON         CLOUDY    59  55  87 CALM      30.08S
WORCESTER      CLOUDY    66  57  72 CALM      30.11R
WESTFIELD      CLOUDY    69  55  60 S6        30.06R
PROVINCETOWN   CLEAR     60  54  80 SE9       30.11F
NANTUCKET      CLEAR     56  53  90 SE12      30.12F
$$

ANZ330-335-338-340-345-350-353-355-270700-
COASTAL MARINE OBSERVATIONS


STATION/POSITION TIME  SKY/WX   TEMP    WIND        PRES    VSBY  WAVE
                                AIR SEA DIR/SP/G                  HT/PER
                 (UTC)          (F)     (DEG/KT/KT) (MB)    (MI)  (FT/S)
NY HARB ENTRANCE 0450            63 59  200/ 12/ 14 1017.1          2/ 9
20S FIRE ISLAND  0450            60 59  190/ 10/ 10 1017.9          2/ 8
GREAT SOUTH BAY  0500            64 67  210/  8/ 10   N/A
23 SSW MONTAUK P 0550            58 57  210/  8/ 10 1018.5          2/ 8
15 E BARNEGAT LI 0522               59                N/A           3/ 4
HUDSON CANYON    0450            59 56              1019.1          2/ 7
KINGS POINT      0500            68 58              1017.3
EXECUTION ROCKS  NOT AVBL
CENTRAL LI SOUND NOT AVBL
EASTERN LI SOUND 0500            56 53  120/  2/  4   N/A
ROBBINS REEF     0500            70     180/  4/  5 1016.8
$$


>>>>>>>>>>>>>>>>>>>>>>>>>>>> KEY <<<<<<<<<<<<<<<<<<<<<<<<<<<
>                                                          <
>     SKY/WX - SKY CONDITION/PRESENT WEATHER               <
>     TMP    - TEMPERATURE IN FAHRENHEIT                   <
>     DP     - DEWPOINT IN FAHRENHEIT                      <
>     RH     - RELATIVE HUMIDITY IN PERCENT                <
>     WIND   - DIRECTION AND SPEED IN MPH                  <
>     PRES   - MEAN SEA LEVEL PRESSURE IN INCHES OF HG     <
>     WCI    - WIND CHILL INDEX                            <
>     VSB    - VISIBILITY IN MILES                         <
>     HX     - HEAT INDEX                                  <
>     TC     - TEMPERATURE IN CELSIUS                      <
>     VRB    - VARIABLE WIND DIRECTION                     <
>                                                          <
>>>>>>>>>>>>>>>>>>>>>>>>>>>> KEY <<<<<<<<<<<<<<<<<<<<<<<<<<<






USA.gov is the U.S. government's official web portal to all federal, state and local government web resources and services.